Flag for Canada Weather past 2 weeks in Whitehorse, Yukon Territory, Canada

Now
57 °F

Scattered showers. Mostly cloudy.


Feels Like: 55 °F
Forecast: 47 / 61 °F
Wind: 10 mph from Southeast

Location: Withehorse

Current Time: Aug 28, 2014 at 4:59:00 PM

Latest Report: Aug 28, 2014 at 4:00 PM


Visibility: 40 mi

Pressure: 29.86 "Hg

Humidity: 55%

Dew point: 41 °F

Location of WhitehorseLocation

Historic Weather in Whitehorse — Graph

°F

Whitehorse temperature yesterday

Maximum temperature yesterday: 64 °F (at 6:00 PM)
Minimum temperature yesterday: 39 °F (at 6:49 AM)
Average temperature yesterday: 51 °F

Past Weeks' High & Low Weather Summary

 TemperatureHumidityPressure
High68 °F (Aug 22, 3:00 PM)100% (Aug 20, 4:00 AM)30.29 "Hg (Aug 20, 4:00 AM)
Low39 °F (Aug 27, 6:49 AM)32% (Aug 27, 6:00 PM)29.70 "Hg (Aug 25, 7:00 PM)
Average54 °F71%29.99 "Hg
* Reported Aug 13 3:00 PM — Aug 28 3:17 PM, Whitehorse, Weather by CustomWeather, © 2014

Note: Actual official high and low records may vary slightly from our data, if they occured in-between our weather recording intervals... More about our weather records

Advertising

Whitehorse weather history for previous 24 hours

 ConditionsComfort  
Time TempWeatherWind HumidityBarometerVisibility
3:17 PM
Aug 28
59 °FScattered showers. Mostly cloudy.13 mph48%29.87 "Hg40 mi
2:00 PM57 °FBroken clouds.13 mph51%29.88 "Hg40 mi
1:00 PM55 °FBroken clouds.10 mph55%29.90 "Hg40 mi
12:00 PM55 °FBroken clouds.15 mph59%29.91 "Hg40 mi
11:00 AM52 °FPartly sunny.15 mph62%29.93 "Hg40 mi
10:00 AM50 °FPartly sunny.13 mph67%29.95 "Hg40 mi
9:00 AM46 °FBroken clouds.14 mph71%29.95 "Hg40 mi
8:00 AM45 °FBroken clouds.12 mph76%29.95 "Hg40 mi
7:00 AM43 °FPartly cloudy.12 mph81%29.95 "Hg40 mi
6:00 AM43 °FPassing clouds.13 mph81%29.96 "Hg40 mi
5:00 AM45 °FPassing clouds.13 mph76%29.96 "Hg15 mi
4:00 AM45 °FPassing clouds.12 mph76%29.97 "Hg15 mi
3:00 AM46 °FClear.14 mph71%29.97 "Hg15 mi
2:00 AM46 °FPassing clouds.14 mph71%29.96 "Hg15 mi
1:00 AM48 °FPassing clouds.12 mph66%29.96 "Hg15 mi
12:00 AM48 °FPassing clouds.9 mph66%29.97 "Hg15 mi
11:00 PM
Aug 27
50 °FPassing clouds.8 mph62%29.97 "Hg15 mi
10:00 PM52 °FPartly sunny.18 mph58%29.97 "Hg40 mi
9:00 PM57 °FPartly sunny.8 mph44%29.96 "Hg40 mi
8:00 PM57 °FPartly sunny.9 mph41%29.95 "Hg40 mi
7:00 PM61 °FPartly sunny.17 mph36%29.95 "Hg40 mi
6:00 PM64 °FScattered clouds.15 mph32%29.94 "Hg40 mi
5:00 PM63 °FScattered clouds.18 mph45%29.93 "Hg40 mi
4:00 PM61 °FScattered clouds.15 mph48%29.94 "Hg40 mi
Weather by CustomWeather, © 2014

See weather overviewHow to use our weather pages